Starlink 6278

operational
NORAD ID: 56412 Int'l Des: 2023-061 Owner: SPXS Country: US Constellation: starlink
LEOCIRCULAR

Über Starlink 6278

Beschreibung wird geladen...

Live-Position

3D-Globus wird geladen...

Nächste Überflüge

Höhenverlauf

Altitude vs Time

uPlot chart will show altitude changes over time

Zweizeiliger Elementsatz

1 56412U 23061AQ 26036.29267299 .00000875 00000-0 79874-4 0 9992
2 56412 43.0041 0.3005 0001280 268.2750 91.7946 15.02534850152031
Epoch: 5. Feb. 2026 • Age: 11 hours

Aktueller Status

Höhe 564.4 km
Geschwindigkeit 7.58 km/s
Subsatellitenpunkt -24.13°S, 167.22°E
Startdatum 4. Mai 2023
Alter 2.7 years
Typ internet

Technische Details

Klassifizierung Payload
Masse 305.00 kg
Trockenmasse 290.00 kg
Gesamtmasse 305.00 kg
Länge 0.20 m
Durchmesser 2.80 m
Spannweite 9.00 m
Form Box + pan
Hersteller SPXS
Bus-Typ Starlink
Phasenstatus In Orbit
Besitzer/Staat SPXS/US

Große Konstellationen

Loading constellations...